Weather History for Harlingen, TX

Change the Weather History Date:

Friday, February 15, 2013

  Actual Average Record
Temperature  
Mean Temperature 62 °F 63 °F  
Max Temperature 78 °F 74 °F 90 °F (1937)
Min Temperature 45 °F 53 °F 35 °F (1917)
Degree Days  
Heating Degree Days 3 4  
Month to date heating degree days 19 73  
Since 1 July heating degree days 318 521  
Cooling Degree Days 0 3  
Month to date cooling degree days 80 36  
Year to date cooling degree days 150 85  
Growing Degree Days 12 (Base 50)    
Moisture  
Dew Point 46 °F    
Average Humidity 58    
Maximum Humidity 86    
Minimum Humidity 29    
Precipitation  
Precipitation 0.00 in 0.07 in 5.16 in (1923)
Month to date precipitation 0.20 0.90  
Year to date precipitation 2.74 1.96  
Sea Level Pressure  
Sea Level Pressure 30.11 in    
Wind  
Wind Speed 9 mph (NE)    
Max Wind Speed 22 mph    
Max Gust Speed 29 mph    
Visibility 10 miles    
Events      
T = Trace of Precipitation, MM = Missing Value Source: NWS Daily Summary

Daily Weather History Graph

Daily Weather History Graph

Search for Another Location

Airport:

Trip Planner

Search our weather history database for the weather conditions in past years. The results will help you decide how hot, cold, wet, or windy it might be!

Date:

Astronomy

Feb. 15, 2013 Rise Set
Actual Time 7:06 AM CST 6:23 PM CST
Civil Twilight 6:42 AM CST 6:47 PM CST
Nautical Twilight 6:15 AM CST 7:14 PM CST
Astronomical Twilight 5:48 AM CST 7:41 PM CST
Moon 10:20 AM CST (2/15) 11:45 PM CST (2/15)
Length of Visible Light 12h 04m
Length of Day
11h 17m
Waxing Crescent, 30% of the Moon is Illuminated
Feb 15
Waxing Crescent
Feb 17
First Quarter
Feb 25
Full
Mar 4
Last Quarter
Mar 11
New

Hourly Weather History & Observations

Time (CST) Temp. Windchill Dew Point Humidity Pressure Visibility Wind Dir Wind Speed Gust Speed Precip Events Conditions
12:52 AM 48.0 °F - 43.0 °F 83% 30.04 in 10.0 mi SE 4.6 mph - N/A   Clear
1:52 AM 46.9 °F - 43.0 °F 86% 30.05 in 10.0 mi Calm Calm - N/A   Clear
2:52 AM 48.9 °F - 45.0 °F 86% 30.04 in 10.0 mi Calm Calm - N/A   Clear
3:52 AM 48.0 °F - 44.1 °F 86% 30.05 in 10.0 mi Calm Calm - N/A   Clear
4:52 AM 46.0 °F 44.8 °F 43.0 °F 89% 30.06 in 10.0 mi NNE 3.5 mph - N/A   Clear
5:52 AM 46.0 °F 43.1 °F 43.0 °F 89% 30.07 in 10.0 mi NE 5.8 mph - N/A   Clear
6:52 AM 46.0 °F 44.8 °F 43.0 °F 89% 30.10 in 10.0 mi North 3.5 mph - N/A   Clear
7:52 AM 50.0 °F - 46.9 °F 89% 30.11 in 10.0 mi NE 6.9 mph - N/A   Clear
8:52 AM 63.0 °F - 55.0 °F 75% 30.12 in 10.0 mi ENE 9.2 mph - N/A   Clear
9:52 AM 69.1 °F - 53.1 °F 57% 30.14 in 10.0 mi East 10.4 mph - N/A   Clear
10:52 AM 72.0 °F - 48.0 °F 43% 30.14 in 10.0 mi East 12.7 mph - N/A   Clear
11:52 AM 75.0 °F - 42.1 °F 31% 30.12 in 10.0 mi NE 15.0 mph - N/A   Clear
12:52 PM 77.0 °F - 42.1 °F 29% 30.09 in 10.0 mi East 18.4 mph 23.0 mph N/A   Clear
1:52 PM 75.9 °F - 43.0 °F 31% 30.08 in 10.0 mi ENE 18.4 mph 24.2 mph N/A   Clear
2:52 PM 73.9 °F - 46.9 °F 38% 30.07 in 10.0 mi ENE 17.3 mph 26.5 mph N/A   Clear
3:52 PM 72.0 °F - 46.9 °F 41% 30.08 in 10.0 mi ENE 17.3 mph - N/A   Clear
4:52 PM 68.0 °F - 48.9 °F 50% 30.09 in 10.0 mi East 17.3 mph - N/A   Clear
5:52 PM 66.0 °F - 46.9 °F 50% 30.11 in 10.0 mi ENE 19.6 mph 25.3 mph N/A   Clear
6:52 PM 62.6 °F - 48.2 °F 59% 30.13 in 10.0 mi East 13.8 mph - N/A   Clear
7:52 PM 60.1 °F - 48.0 °F 64% 30.15 in 10.0 mi ENE 9.2 mph - N/A   Clear
8:52 PM 57.0 °F - 48.0 °F 72% 30.18 in 10.0 mi East 6.9 mph - N/A   Clear
9:52 PM 54.0 °F - 46.9 °F 77% 30.21 in 10.0 mi North 4.6 mph - N/A   Clear
10:52 PM 54.0 °F - 48.0 °F 80% 30.23 in 10.0 mi NNW 4.6 mph - N/A   Mostly Cloudy
11:52 PM 57.9 °F - 48.0 °F 70% 30.24 in 10.0 mi North 5.8 mph - N/A   Overcast